Portada
METAR-TAF:

METAR-TAF

Aeroports :

Marshalltown Municipal Airport

Marshalltown, Iowa, Estats Units d'Amèrica

latitud: 42-06-38N, longitud: 092-54-58W, altitud: 296 m

Observació

L'informe es va fer fa 1 hora i 15 minuts, a les 12:53 UTC
Vent calma
Temperatura -6°C
Humitat 93%
Pressió 1017 hPa
Visibilitat: 16.1 km
Cel clar

METAR: KMIW 111253Z AUTO 00000KT 10SM CLR M06/M07 A3002 RMK AO2 SLP181 T10611072

Hora: 08:08 (14:08 UTC)


TAF: manca

Observacions i pronòstics meteorològics de més de 4000 aeroports (METAR i TAF).

Les estacions disponibles són els punts grocs i vermells al mapa.

Posi el ratolí al punt desitjat per veure el nom de l'estació.

Feu clic per veure les observacions i els pronòstics meteorològics.

Per canviar el mapa: feu clic els botons verds amb una creu de color negre per apropar; al botó verd amb un guió per allunyar la imatge; o en les fletxes verdes per a mapes adjacents.


METAR-TAF: